Orbital Elements at Epoch 2459200.5 (2020-Dec-17.0) TDB
Reference: JPL 24 (heliocentric ecliptic J2000)
Element | Value | Uncertainty (1-sigma) | Units |
e | .1629595423809422 | 4.4212e-08 | |
a | 2.229668763243757 | 7.478e-09 | au |
q | 1.866322961924473 | 9.9032e-08 | au |
i | 7.478257774415381 | 4.8972e-06 | deg |
node | 42.85866803541398 | 3.0401e-05 | deg |
peri | 179.2308460949504 | 3.2679e-05 | deg |
M | 291.0706544982197 | 1.2741e-05 | deg |
tp | 2459433.341616285730 (2021-Aug-06.84161629) | 4.3342e-05 | TDB |
period | 1216.071054391453 3.33 | 6.1178e-06 1.675e-08 | d yr |
n | .2960353333795544 | 1.4893e-09 | deg/d |
Q | 2.593014564563041 | 8.6966e-09 | au |
|
| | Orbit Determination Parameters
Additional Information
|